TimeAKST,TemperatureF,Dew PointF,Humidity,Sea Level PressureIn,VisibilityMPH,Wind Direction,Wind SpeedMPH,Gust SpeedMPH,PrecipitationIn,Events,Conditions,WindDirDegrees,DateUTC
12:53 AM,-23.1,-27.9,78,30.29,10.0,Calm,Calm,-,N/A,,Clear,0,2012-11-16 09:53:00
1:53 AM,-23.1,-29.0,74,30.30,10.0,Calm,Calm,-,N/A,,Clear,0,2012-11-16 10:53:00
3:53 AM,-23.1,-29.0,74,30.32,10.0,Calm,Calm,-,N/A,,Clear,0,2012-11-16 12:53:00
4:53 AM,-22.0,-27.9,74,30.33,10.0,Calm,Calm,-,N/A,,Clear,0,2012-11-16 13:53:00
5:53 AM,-24.0,-29.9,74,30.34,10.0,Calm,Calm,-,N/A,,Clear,0,2012-11-16 14:53:00
6:53 AM,-23.1,-27.9,78,30.35,10.0,Calm,Calm,-,N/A,,Clear,0,2012-11-16 15:53:00
7:53 AM,-25.1,-29.9,78,30.36,10.0,Calm,Calm,-,N/A,,Clear,0,2012-11-16 16:53:00
8:53 AM,-24.0,-29.9,74,30.36,10.0,Calm,Calm,-,N/A,,Clear,0,2012-11-16 17:53:00
9:53 AM,-24.0,-29.0,77,30.38,10.0,Calm,Calm,-,N/A,,Clear,0,2012-11-16 18:53:00
10:53 AM,-23.1,-27.9,78,30.39,10.0,Calm,Calm,-,N/A,,Partly Cloudy,0,2012-11-16 19:53:00
11:53 AM,-8.0,-15.0,71,30.38,10.0,NNE,5.8,-,N/A,,Clear,20,2012-11-16 20:53:00
12:53 PM,-2.0,-9.9,69,30.38,10.0,NNE,8.1,-,N/A,,Clear,20,2012-11-16 21:53:00
1:53 PM,-2.0,-11.0,66,30.38,10.0,NNE,6.9,-,N/A,,Clear,20,2012-11-16 22:53:00
2:53 PM,-0.9,-11.0,62,30.37,10.0,NW,4.6,-,N/A,,Clear,320,2012-11-16 23:53:00
3:53 PM,-0.9,-11.0,62,30.37,10.0,North,4.6,-,N/A,,Clear,10,2012-11-17 00:53:00
4:53 PM,-6.0,-14.1,68,30.38,10.0,WNW,4.6,-,N/A,,Clear,300,2012-11-17 01:53:00
5:53 PM,-2.9,-11.9,65,30.38,10.0,North,6.9,-,N/A,,Clear,350,2012-11-17 02:53:00
6:53 PM,-4.0,-13.0,65,30.37,10.0,North,9.2,-,N/A,,Clear,360,2012-11-17 03:53:00
7:53 PM,-5.1,-14.1,65,30.37,10.0,North,6.9,-,N/A,,Clear,350,2012-11-17 04:53:00
8:53 PM,-7.1,-15.0,68,30.37,10.0,NNW,4.6,-,N/A,,Clear,340,2012-11-17 05:53:00
9:53 PM,-8.0,-15.0,71,30.36,10.0,NNW,6.9,-,N/A,,Clear,340,2012-11-17 06:53:00
10:53 PM,-9.9,-16.1,74,30.35,10.0,North,6.9,-,N/A,,Clear,350,2012-11-17 07:53:00
11:53 PM,-11.0,-18.0,71,30.34,10.0,NNE,5.8,-,N/A,,Clear,20,2012-11-17 08:53:00